Погода в Караульном

Россия / Астраханская область     45°52′30″N   48°07′47″E
темп.,
°C
ветер,
м/с
пор.,
м/с
влажн.,
%
обл.,
%
осадки,
мм/ч
давл.,
гПа
погр.,
м
8 мая, сб
сб801:00+13ююз37595 0.0 1019110
04:00+13юз34650 0.0 101849
07:00+15юз24635 0.0 1018136
10:00+22ю44393 0.0 10181129
13:00+23ю54300 0.0 10181559
16:00+22ююв65291 0.0 10171214
19:00+19ююв553795 0.0 1017624
22:00+15ююв355392 0.0 1017120
9 мая, вс
вс901:00+15юв3653100 0.0 1015105
04:00+15юв496718 0.0 1014168
07:00+18юв6115899 0.0 1013773
10:00+21юв91340100 0.0 10121017
13:00+23ююв10134797 0.0 10111199
16:00+22ююв91450100 0.0 10101181
19:00+20ююв6125815 0.0 1010887
22:00+17вюв3674100 0.0 1010148
10 мая, пн
пн1001:00+16ю4780100 0.0 1009338
04:00+10зсз101489100 5.2 1011678
07:00+9зсз81382100 2.5 1014798
10:00+10зсз81273100 2.6 1015967
13:00+9з71083100 1.8 10171150
16:00+11зсз6964100 2.6 10171306
19:00+14сз35515 0.0 1017461
22:00+10ююв11630 0.0 101910
11 мая, вт
вт1101:00+9зюз11640 0.0 101910
04:00+8всв11630 0.0 102011
07:00+10ссз226198 0.0 102190
10:00+15св334497 0.0 1021970
13:00+18всв543678 0.0 10201521
16:00+18св55345 0.0 10201555
19:00+16ссв434099 0.0 1020936
22:00+12ссв36588 0.0 1020137
12 мая, ср
ср1201:00+10ссв23695 0.0 102059
04:00+9ссв33795 0.0 101947
07:00+12с23760 0.0 1019170
10:00+18св22540 0.0 1019709
13:00+22юв33410 0.0 10181611
16:00+21юв65510 0.0 10181013
19:00+19ююв45630 0.0 1018707
22:00+16вюв12790 0.0 101815